Tracking 35274 objects as of 10-Sep-2026
HD Live streaming from Space Station
objects crossing your sky now

DELTA 1 R/B

Track DELTA 1 R/B now!
10-day predictions


NORAD ID: 7616
Int'l Code: 1975-004B
Launch date: January 22, 1975
Source: United States (US)
Launch site: AIR FORCE WESTERN TEST RANGE (AFWTR)

Note: This is a ROCKET BODY
Your satellite tracking list
Your tracking list is empty




NASA's NSSDC Master Catalog

Two Line Element Set (TLE):
1 07616U 75004B   26252.85664397 -.00000043  00000-0 -37450-5 0  9994
2 07616  97.7321 295.3490 0184104 265.3885  92.6239 14.06125752632294
Source of the keplerian elements: AFSPC